This is the latest recevied weather packets stored in our database for station/object IT9FBN-3. If no packets are shown the sender has not sent any weather packets the latest 10 day(s).
| Time | Temp. | Humidity | Pressure | Rain* | Wind** | Luminosity | Snow |
|---|---|---|---|---|---|---|---|
| 1777733404 | 16.67° C | 55% | 1021.2 hPa | 0 mm | - | - | - |
| 1777733104 | 16.67° C | 55% | 1021.3 hPa | 0 mm | - | - | - |
| 1777732804 | 16.67° C | 54% | 1021.3 hPa | 0 mm | - | - | - |
| 1777732504 | 17.22° C | 52% | 1021.2 hPa | 0 mm | - | - | - |
| 1777732204 | 17.22° C | 55% | 1021.2 hPa | 0 mm | - | - | - |
| 1777731904 | 16.67° C | 53% | 1021.4 hPa | 0 mm | - | - | - |
| 1777731604 | 16.67° C | 52% | 1021.5 hPa | 0 mm | - | - | - |
| 1777731304 | 17.22° C | 52% | 1021.4 hPa | 0 mm | - | - | - |
| 1777731004 | 17.22° C | 51% | 1021.4 hPa | 0 mm | - | - | - |
| 1777730704 | 17.22° C | 53% | 1021.4 hPa | 0 mm | - | - | - |
| 1777730104 | 17.22° C | 53% | 1021.4 hPa | 0 mm | - | - | - |
| 1777729804 | 17.22° C | 54% | 1021.5 hPa | 0 mm | - | - | - |
| 1777729204 | 17.22° C | 54% | 1021.4 hPa | 0 mm | - | - | - |
| 1777728904 | 17.22° C | 53% | 1021.5 hPa | 0 mm | - | - | - |
| 1777728604 | 17.22° C | 53% | 1021.5 hPa | 0 mm | - | - | - |
| 1777728304 | 17.22° C | 53% | 1021.6 hPa | 0 mm | - | - | - |
| 1777728004 | 17.22° C | 49% | 1021.6 hPa | 0 mm | - | - | - |
| 1777727704 | 17.22° C | 50% | 1021.7 hPa | 0 mm | - | - | - |
| 1777727404 | 17.22° C | 53% | 1021.8 hPa | 0 mm | - | - | - |
| 1777726807 | 16.67° C | 54% | 1021.8 hPa | 0 mm | - | - | - |
| 1777725604 | 16.67° C | 52% | 1021.9 hPa | 0 mm | - | - | - |
| 1777725004 | 17.78° C | 52% | 1021.9 hPa | 0 mm | - | - | - |
| 1777724404 | 17.22° C | 51% | 1021.9 hPa | 0 mm | - | - | - |
| 1777723804 | 17.22° C | 50% | 1021.9 hPa | 0 mm | - | - | - |
| 1777723504 | 17.22° C | 51% | 1021.8 hPa | 0 mm | - | - | - |
* Rain latest hour (hover to see other rain measurements)
** Current wind speed in m/s (hover to see current wind gust speed)